Location: Lombard
(41.8800°N, 88.0080°W)
Time: 02:44:14
(UTC-05:00)

CAS-4A - Pass Details

Date: 25 May 2022
Orbit: 523 x 537 km, 43.0° (Epoch: 27 June)

Event Time Altitude Azimuth Distance (km) Brightness Sun altitude
Rises 22:36:39 0° 283° (WNW) 2,654 ? -20.0°
Reaches altitude 10° 22:38:53 10° 281° (W) 1,762 ? -20.2°
Maximum altitude 22:42:53 67° 199° (SSW) 569 ? -20.6°
Enters shadow 22:43:02 66° 183° (S) 573 ? -20.6°
